Home > Weather > Markham > Past weeks

Flag for Canada Past Weather in Markham, Ontario, Canada — Yesterday and Last 2 Weeks

Now
70 °F

Broken clouds.


Feels Like: 70 °F
Forecast: 61 / 70 °F
Wind: 7 mph from Northwest

Location: Toronto Buttonville

Current Time: Jun 28, 2016 at 2:42:19 PM

Latest Report: Jun 28, 2016 at 2:00 PM


Visibility: 15 mi

Pressure: 29.94 "Hg

Humidity: 69%

Dew Point: 59 °F

Location of MarkhamLocation

Past Weather in Markham — Graph

°F

Markham Temperature Yesterday

Maximum temperature yesterday: 88 °F (at 2:00 PM)
Minimum temperature yesterday: 70 °F (at 6:00 AM)
Average temperature yesterday: 78 °F

High & Low Weather Summary for the Past Weeks

 TemperatureHumidityPressure
High91 °F (Jun 20, 4:00 PM)94% (Jun 27, 1:00 AM)30.27 "Hg (Jun 27, 1:00 AM)
Low46 °F (Jun 14, 6:00 AM)24% (Jun 18, 1:00 PM)29.74 "Hg (Jun 20, 7:00 PM)
Average71 °F50%29.98 "Hg
* Reported Jun 13 1:00 PM — Jun 28 1:00 PM, Markham, Weather by CustomWeather, © 2016

Note: Actual official high and low records may vary slightly from our data, if they occured in-between our weather recording intervals... More about our weather records

Advertising

Markham Weather History for the Previous 24 Hours

Scroll right to see more
 ConditionsComfort  
Time TempWeatherWind HumidityBarometerVisibility
1:00 PM
Tue, Jun 28
70 °FMostly cloudy.9 mph69%29.95 "Hg15 mi
12:00 PM68 °FPartly sunny.7 mph73%29.95 "Hg15 mi
11:00 AM68 °FMostly cloudy.6 mph73%29.94 "Hg15 mi
10:00 AM66 °FPartly sunny.8 mph73%29.94 "Hg15 mi
9:00 AM64 °FPartly sunny.10 mph78%29.95 "Hg15 mi
8:00 AM64 °FPartly sunny.9 mph73%29.93 "Hg15 mi
7:00 AM63 °FScattered clouds.10 mph73%29.93 "Hg15 mi
6:00 AM61 °FPassing clouds.7 mph77%29.93 "Hg15 mi
5:00 AM61 °FPassing clouds.9 mph83%29.91 "Hg15 mi
4:00 AM63 °FPassing clouds.9 mph77%29.90 "Hg15 mi
3:00 AM64 °FPassing clouds.10 mph73%29.89 "Hg15 mi
2:00 AM66 °FPassing clouds.10 mph68%29.90 "Hg15 mi
1:00 AM68 °FPassing clouds.10 mph64%29.90 "Hg15 mi
12:00 AM70 °FPassing clouds.9 mph60%29.90 "Hg15 mi
11:00 PM
Mon, Jun 27
70 °FPassing clouds.9 mph64%29.90 "Hg15 mi
10:00 PM72 °FBroken clouds.10 mph65%29.90 "Hg15 mi
9:00 PM75 °FPartly sunny.13 mph57%29.89 "Hg15 mi
8:00 PM79 °FBroken clouds.16 mph51%29.86 "Hg15 mi
7:00 PM81 °FScattered clouds.14 mph51%29.84 "Hg15 mi
6:00 PM86 °FScattered clouds.16 mph33%29.83 "Hg15 mi
5:00 PM88 °FScattered clouds.15 mph31%29.84 "Hg15 mi
4:00 PM88 °FScattered clouds.16 mph33%29.85 "Hg15 mi
3:00 PM88 °FPartly sunny.14 mph33%29.85 "Hg15 mi
2:00 PM88 °FPartly sunny.13 mph31%29.86 "Hg15 mi
Weather by CustomWeather, © 2016

See weather overviewHow to use our weather pages